sat.trackr.live / text

‹ back to catalog

2025-155M

NORAD 64887 · 2025-155M

PAYLOAD ACTIVE UNKNOWN

§ Identity

Operator
Country
TBD
Launch date
2025-07-25
Launch site
VOSTO
Launch vehicle
Mass (kg)
RCS (m²)

External: N2YO · Heavens-Above · Gunter

§ Orbital elements

Epoch: 2026-09-21T21:04:57.400032Z

Period
93.32 min
Inclination
97.4597°
Eccentricity
0.0007327
Mean motion
15.43152446 rev/d
Perigee alt
431.8 km
Apogee alt
441.8 km
Semi-major
6,814.9 km
B*
5.3066e-4
RAAN
237.0765°
Arg perigee
149.6200°
Mean anomaly
210.5474°
Rev number
9,577

§ Raw data

2025-155M1 64887U 25155M   26264.87844213  .00023480  00000+0  53066-3 0  99972 64887  97.4597 237.0765 0007327 149.6200 210.5474 15.43152446 95773

JSON: /api/v1/satellites/64887 · /tle

For live sub-satellite position, see the globe view (requires WebGL).

§ Visibility from observer

Set your observer location to see the next 7 days of passes ≥ 10°. The values pass through the URL so the page stays shareable.

No JS? Fill the form by hand. The geolocation button needs JavaScript.